When you browse on this site, cookies collect data to enhance your experience and personalize the content and advertising you see.
Visit our Privacy Policy to learn more. By continuing to use the site, you agree to this use of cookies and data.
  • en Suisse
  • Liste des pays
  • À 7 jours
  • Température de l'eau
  • Carte météo
  • Widgets météo
  • user-avatar
    Se connecter

    Météo par heure à Frendshin

    Ce jour, 2 Juin, Mardi

    Heure Température Précipitation Vent Pression Humidité
    00:00 +26°C° 0 mm 4 m/s 760 mmHg 90%
    01:00 +26°C° 0 mm 4 m/s 760 mmHg 90%
    02:00 +26°C° 0 mm 4 m/s 759 mmHg 91%
    03:00 +25°C° 0 mm 4 m/s 759 mmHg 91%
    04:00 +25°C° 0 mm 3 m/s 759 mmHg 91%
    05:00 +25°C° 0 mm 3 m/s 759 mmHg 91%
    06:00 +27°C° 0 mm 3 m/s 760 mmHg 84%
    07:00 +28°C° 0 mm 3 m/s 760 mmHg 77%
    08:00 +30°C° 0 mm 3 m/s 760 mmHg 70%
    09:00 +30°C° 0 mm 3 m/s 760 mmHg 67%
    10:00 +31°C° 0 mm 3 m/s 760 mmHg 64%
    11:00 +31°C° 0 mm 2 m/s 760 mmHg 61%
    12:00 +33°C° 0.1 mm 3 m/s 760 mmHg 60%
    13:00 +33°C° 0.1 mm 3 m/s 759 mmHg 60%
    14:00 +34°C° 0.1 mm 3 m/s 758 mmHg 59%
    15:00 +32°C° 0 mm 4 m/s 758 mmHg 65%
    16:00 +30°C° 0 mm 4 m/s 758 mmHg 71%
    17:00 +29°C° 0 mm 4 m/s 758 mmHg 76%
    18:00 +28°C° 0 mm 4 m/s 758 mmHg 81%
    19:00 +27°C° 0 mm 4 m/s 759 mmHg 85%
    20:00 +27°C° 0 mm 4 m/s 759 mmHg 89%
    21:00 +27°C° 0 mm 4 m/s 759 mmHg 90%
    22:00 +27°C° 0 mm 4 m/s 760 mmHg 90%
    23:00 +26°C° 0 mm 4 m/s 760 mmHg 90%

    Demain, 3 Juin, Mercredi

    Heure Température Précipitation Vent Pression Humidité
    00:00 +26°C° 0 mm 4 m/s 759 mmHg 90%
    01:00 +26°C° 0 mm 4 m/s 758 mmHg 90%
    02:00 +26°C° 0 mm 5 m/s 758 mmHg 90%
    03:00 +26°C° 0 mm 4 m/s 758 mmHg 91%
    04:00 +26°C° 0 mm 4 m/s 758 mmHg 92%
    05:00 +26°C° 0 mm 4 m/s 758 mmHg 93%
    06:00 +27°C° 0 mm 4 m/s 759 mmHg 87%
    07:00 +28°C° 0 mm 4 m/s 759 mmHg 81%
    08:00 +30°C° 0 mm 4 m/s 759 mmHg 75%
    09:00 +30°C° 0.3 mm 4 m/s 759 mmHg 75%
    10:00 +32°C° 0.3 mm 4 m/s 759 mmHg 75%
    11:00 +32°C° 0.3 mm 4 m/s 759 mmHg 76%
    12:00 +32°C° 0.5 mm 5 m/s 759 mmHg 74%
    13:00 +32°C° 0.5 mm 5 m/s 758 mmHg 71%
    14:00 +33°C° 0.5 mm 5 m/s 757 mmHg 69%
    15:00 +32°C° 0 mm 5 m/s 757 mmHg 72%
    16:00 +30°C° 0 mm 5 m/s 757 mmHg 74%
    17:00 +29°C° 0 mm 5 m/s 757 mmHg 77%
    18:00 +29°C° 0 mm 5 m/s 757 mmHg 81%
    19:00 +28°C° 0 mm 5 m/s 758 mmHg 84%
    20:00 +27°C° 0 mm 5 m/s 758 mmHg 88%
    21:00 +27°C° 0 mm 5 m/s 759 mmHg 88%
    22:00 +27°C° 0 mm 5 m/s 759 mmHg 89%
    23:00 +27°C° 0 mm 5 m/s 759 mmHg 89%

    Après-demain, 4 Juin, Jeudi

    Heure Température Précipitation Vent Pression Humidité
    00:00 +26°C° 0.3 mm 4 m/s 759 mmHg 92%
    01:00 +26°C° 0.3 mm 4 m/s 758 mmHg 94%
    02:00 +25°C° 0.3 mm 4 m/s 758 mmHg 96%
    03:00 +25°C° 0.3 mm 4 m/s 758 mmHg 97%
    04:00 +25°C° 0.3 mm 4 m/s 758 mmHg 97%
    05:00 +25°C° 0.3 mm 4 m/s 758 mmHg 98%
    06:00 +26°C° 0 mm 4 m/s 758 mmHg 92%
    07:00 +28°C° 0 mm 4 m/s 759 mmHg 86%
    08:00 +29°C° 0 mm 4 m/s 759 mmHg 80%
    09:00 +32°C° 0 mm 4 m/s 759 mmHg 70%
    10:00 +33°C° 0 mm 4 m/s 759 mmHg 60%
    11:00 +35°C° 0 mm 4 m/s 759 mmHg 50%
    12:00 +35°C° 0 mm 4 m/s 758 mmHg 50%
    13:00 +35°C° 0 mm 4 m/s 758 mmHg 51%
    14:00 +36°C° 0 mm 5 m/s 757 mmHg 51%
    15:00 +33°C° 0.5 mm 5 m/s 757 mmHg 63%
    16:00 +30°C° 0.5 mm 5 m/s 757 mmHg 76%
    17:00 +28°C° 0.5 mm 6 m/s 757 mmHg 88%
    18:00 +27°C° 1 mm 5 m/s 758 mmHg 90%
    19:00 +27°C° 1 mm 5 m/s 758 mmHg 92%
    20:00 +26°C° 1 mm 5 m/s 759 mmHg 94%
    21:00 +26°C° 0.6 mm 5 m/s 759 mmHg 94%
    22:00 +26°C° 0.6 mm 4 m/s 759 mmHg 95%
    23:00 +26°C° 0.6 mm 4 m/s 759 mmHg 96%

    5 Juin, Vendredi

    Heure Température Précipitation Vent Pression Humidité
    00:00 +25°C° 0.2 mm 4 m/s 759 mmHg 96%
    01:00 +25°C° 0.2 mm 4 m/s 758 mmHg 97%
    02:00 +25°C° 0.2 mm 4 m/s 758 mmHg 97%
    03:00 +25°C° 0 mm 4 m/s 758 mmHg 97%
    04:00 +25°C° 0 mm 4 m/s 758 mmHg 98%
    05:00 +23°C° 0 mm 4 m/s 758 mmHg 98%
    06:00 +26°C° 0 mm 4 m/s 759 mmHg 92%
    07:00 +27°C° 0 mm 4 m/s 759 mmHg 86%
    08:00 +28°C° 0 mm 4 m/s 760 mmHg 81%
    09:00 +30°C° 0 mm 3 m/s 760 mmHg 70%
    10:00 +33°C° 0 mm 3 m/s 760 mmHg 59%
    11:00 +35°C° 0 mm 3 m/s 760 mmHg 48%
    12:00 +35°C° 0 mm 3 m/s 759 mmHg 47%
    13:00 +36°C° 0 mm 4 m/s 758 mmHg 45%
    14:00 +36°C° 0 mm 4 m/s 758 mmHg 43%
    15:00 +34°C° 0.2 mm 4 m/s 758 mmHg 56%
    16:00 +32°C° 0.2 mm 5 m/s 758 mmHg 68%
    17:00 +29°C° 0.2 mm 5 m/s 758 mmHg 80%
    18:00 +28°C° 0.2 mm 5 m/s 758 mmHg 84%
    19:00 +27°C° 0.2 mm 5 m/s 759 mmHg 89%
    20:00 +26°C° 0.2 mm 5 m/s 759 mmHg 94%
    21:00 +26°C° 0.1 mm 5 m/s 760 mmHg 94%
    22:00 +26°C° 0.1 mm 5 m/s 760 mmHg 95%
    23:00 +26°C° 0.1 mm 5 m/s 760 mmHg 95%

    6 Juin, Samedi

    Heure Température Précipitation Vent Pression Humidité
    00:00 +26°C° 0.1 mm 4 m/s 760 mmHg 96%
    01:00 +26°C° 0.1 mm 4 m/s 759 mmHg 97%
    02:00 +25°C° 0.1 mm 4 m/s 759 mmHg 98%
    03:00 +25°C° 0.3 mm 4 m/s 759 mmHg 98%
    04:00 +25°C° 0.3 mm 4 m/s 759 mmHg 98%
    05:00 +25°C° 0.3 mm 4 m/s 759 mmHg 98%
    06:00 +26°C° 0 mm 4 m/s 760 mmHg 94%
    07:00 +27°C° 0 mm 4 m/s 760 mmHg 90%
    08:00 +29°C° 0 mm 4 m/s 760 mmHg 85%
    09:00 +30°C° 0 mm 4 m/s 760 mmHg 75%
    10:00 +33°C° 0 mm 4 m/s 760 mmHg 64%
    11:00 +35°C° 0 mm 3 m/s 760 mmHg 53%
    12:00 +34°C° 0.3 mm 4 m/s 759 mmHg 62%
    13:00 +33°C° 0.3 mm 4 m/s 758 mmHg 72%
    14:00 +30°C° 0.3 mm 5 m/s 758 mmHg 81%
    15:00 +29°C° 0.8 mm 5 m/s 758 mmHg 85%
    16:00 +28°C° 0.8 mm 5 m/s 758 mmHg 88%
    17:00 +28°C° 0.8 mm 5 m/s 758 mmHg 92%
    18:00 +27°C° 0.1 mm 5 m/s 758 mmHg 93%
    19:00 +27°C° 0.1 mm 5 m/s 759 mmHg 94%
    20:00 +26°C° 0.1 mm 4 m/s 759 mmHg 95%
    21:00 +26°C° 0.1 mm 4 m/s 760 mmHg 95%
    22:00 +26°C° 0.1 mm 4 m/s 760 mmHg 95%
    23:00 +26°C° 0.1 mm 4 m/s 760 mmHg 95%

    7 Juin, Dimanche

    Heure Température Précipitation Vent Pression Humidité
    00:00 +26°C° 0.3 mm 4 m/s 760 mmHg 96%
    01:00 +25°C° 0.3 mm 4 m/s 759 mmHg 97%
    02:00 +25°C° 0.3 mm 3 m/s 759 mmHg 97%
    03:00 +25°C° 0.2 mm 3 m/s 759 mmHg 97%
    04:00 +25°C° 0.2 mm 3 m/s 759 mmHg 97%
    05:00 +25°C° 0.2 mm 3 m/s 759 mmHg 97%
    06:00 +26°C° 0.2 mm 3 m/s 759 mmHg 92%
    07:00 +27°C° 0.2 mm 3 m/s 760 mmHg 87%
    08:00 +29°C° 0.2 mm 3 m/s 760 mmHg 82%
    09:00 +29°C° 0.7 mm 3 m/s 760 mmHg 81%
    10:00 +30°C° 0.7 mm 3 m/s 760 mmHg 80%
    11:00 +32°C° 0.7 mm 4 m/s 760 mmHg 80%
    12:00 +30°C° 1 mm 4 m/s 759 mmHg 81%
    13:00 +30°C° 1 mm 4 m/s 759 mmHg 82%
    14:00 +30°C° 1 mm 5 m/s 758 mmHg 83%
    15:00 +29°C° 0.1 mm 5 m/s 758 mmHg 81%
    16:00 +29°C° 0.1 mm 5 m/s 758 mmHg 80%
    17:00 +29°C° 0.1 mm 4 m/s 758 mmHg 78%
    18:00 +28°C° 0 mm 4 m/s 759 mmHg 82%
    19:00 +28°C° 0 mm 5 m/s 759 mmHg 86%
    20:00 +27°C° 0 mm 5 m/s 760 mmHg 90%
    21:00 +27°C° 0.3 mm 4 m/s 760 mmHg 91%
    22:00 +26°C° 0.3 mm 4 m/s 760 mmHg 93%
    23:00 +26°C° 0.3 mm 4 m/s 760 mmHg 95%
    Voir plus